| time (UTC) | temp F | wind direction | speed MPH | gust MPH | rain 1hr in | rain 24hr in | rain mn in | humidity % | barometer mb |
| 20260509064553 | 36 | 94 | 0.0 | 1.0 | 0.00 | 0.00 | 0.00 | 74 | 1010.9 |
| 20260509064043 | 36 | 94 | 0.0 | 1.0 | 0.00 | 0.00 | 0.00 | 74 | 1010.8 |
| 20260509063542 | 36 | 94 | 0.0 | 1.0 | 0.00 | 0.00 | 0.00 | 73 | 1010.8 |
| 20260509063050 | 36 | 94 | 0.0 | 1.0 | 0.00 | 0.00 | 0.00 | 75 | 1010.9 |
| 20260509062545 | 36 | 94 | 0.0 | 1.0 | 0.00 | 0.00 | 0.00 | 73 | 1010.8 |
| 20260509062043 | 36 | 94 | 0.0 | 1.0 | 0.00 | 0.00 | 0.00 | 74 | 1010.9 |
| 20260509061554 | 36 | 94 | 0.0 | 1.0 | 0.00 | 0.00 | 0.00 | 75 | 1010.9 |
| 20260509061045 | 36 | 94 | 0.0 | 1.0 | 0.00 | 0.00 | 0.00 | 74 | 1010.9 |
| 20260509060545 | 37 | 94 | 0.0 | 1.0 | 0.00 | 0.00 | 0.00 | 74 | 1010.9 |
| 20260509060051 | 37 | 94 | 0.0 | 1.0 | 0.00 | 0.00 | 0.00 | 73 | 1010.9 |
| 20260509055545 | 37 | 94 | 0.0 | 1.0 | 0.00 | 0.00 | 0.00 | 73 | 1011.0 |
| 20260509055043 | 37 | 94 | 0.0 | 1.0 | 0.00 | 0.00 | 0.00 | 73 | 1011.0 |
| 20260509054611 | 37 | 94 | 0.0 | 1.0 | 0.00 | 0.00 | 0.00 | 72 | 1011.1 |
| 20260509054043 | 37 | 94 | 0.0 | 1.0 | 0.00 | 0.00 | 0.00 | 70 | 1011.1 |
| 20260509053545 | 37 | 94 | 0.0 | 1.0 | 0.00 | 0.00 | 0.00 | 70 | 1011.0 |
| 20260509053145 | 37 | 94 | 0.0 | 1.0 | 0.00 | 0.00 | 0.00 | 71 | 1010.9 |
| 20260509052545 | 37 | 94 | 0.0 | 1.0 | 0.00 | 0.00 | 0.00 | 72 | 1011.0 |
| 20260509052045 | 37 | 94 | 0.0 | 1.0 | 0.00 | 0.00 | 0.00 | 71 | 1010.9 |
| 20260509051554 | 37 | 0 | 0.0 | 1.0 | 0.00 | 0.00 | 0.00 | 69 | 1010.8 |
| 20260509051045 | 37 | 94 | 0.0 | 1.0 | 0.00 | 0.00 | 0.00 | 68 | 1010.8 |
| 20260509050546 | 37 | 94 | 0.0 | 1.0 | 0.00 | 0.00 | 0.00 | 68 | 1010.8 |
| 20260509050052 | 37 | 94 | 0.0 | 1.0 | 0.00 | 0.00 | 0.00 | 67 | 1010.7 |
| 20260509045545 | 37 | 94 | 0.0 | 1.0 | 0.00 | 0.00 | 0.00 | 70 | 1010.8 |
| 20260509045043 | 38 | 94 | 0.0 | 1.0 | 0.00 | 0.00 | 0.00 | 67 | 1010.7 |
| 20260509044552 | 38 | 94 | 1.0 | 1.0 | 0.00 | 0.00 | 0.00 | 68 | 1010.7 |
| 20260509044045 | 38 | 94 | 1.0 | 1.0 | 0.00 | 0.00 | 0.00 | 67 | 1010.7 |
| 20260509043545 | 38 | 94 | 0.0 | 1.0 | 0.00 | 0.00 | 0.00 | 67 | 1010.7 |
| 20260509043058 | 38 | 94 | 0.0 | 1.0 | 0.00 | 0.00 | 0.00 | 68 | 1010.6 |
| 20260509042545 | 38 | 94 | 0.0 | 1.0 | 0.00 | 0.00 | 0.00 | 67 | 1010.7 |
| 20260509042044 | 38 | 94 | 0.0 | 1.0 | 0.00 | 0.00 | 0.00 | 68 | 1010.7 |
| 20260509041553 | 37 | 94 | 0.0 | 1.0 | 0.00 | 0.00 | 0.00 | 70 | 1010.7 |
| 20260509041042 | 37 | 94 | 0.0 | 1.0 | 0.00 | 0.00 | 0.00 | 69 | 1010.6 |
| 20260509040544 | 37 | 94 | 0.0 | 1.0 | 0.00 | 0.00 | 0.00 | 67 | 1010.6 |
| 20260509040111 | 37 | 94 | 0.0 | 1.0 | 0.00 | 0.00 | 0.00 | 68 | 1010.5 |
| 20260509035545 | 37 | 94 | 0.0 | 1.0 | 0.00 | 0.00 | 0.00 | 67 | 1010.6 |
| 20260509035043 | 37 | 94 | 0.0 | 1.0 | 0.00 | 0.00 | 0.00 | 67 | 1010.6 |
| 20260509034609 | 37 | 94 | 0.0 | 1.0 | 0.00 | 0.00 | 0.00 | 67 | 1010.6 |
| 20260509034042 | 37 | 94 | 0.0 | 1.0 | 0.00 | 0.00 | 0.00 | 67 | 1010.6 |
| 20260509033545 | 37 | 94 | 0.0 | 1.0 | 0.00 | 0.00 | 0.00 | 68 | 1010.6 |
| 20260509033054 | 37 | 94 | 0.0 | 1.0 | 0.00 | 0.00 | 0.00 | 68 | 1010.6 |
| 20260509032545 | 37 | 94 | 0.0 | 1.0 | 0.00 | 0.00 | 0.00 | 67 | 1010.6 |
| 20260509032042 | 37 | 94 | 0.0 | 1.0 | 0.00 | 0.00 | 0.00 | 68 | 1010.6 |
| 20260509031555 | 37 | 94 | 0.0 | 1.0 | 0.00 | 0.00 | 0.00 | 66 | 1010.6 |
| 20260509031043 | 37 | 94 | 0.0 | 1.0 | 0.00 | 0.00 | 0.00 | 67 | 1010.6 |
| 20260509030546 | 38 | 94 | 0.0 | 1.0 | 0.00 | 0.00 | 0.00 | 66 | 1010.6 |
| 20260509030105 | 38 | 94 | 0.0 | 1.0 | 0.00 | 0.00 | 0.00 | 65 | 1010.4 |
| 20260509025542 | 38 | 94 | 1.0 | 1.0 | 0.00 | 0.00 | 0.00 | 66 | 1010.4 |
| 20260509025042 | 38 | 94 | 1.0 | 1.0 | 0.00 | 0.00 | 0.00 | 63 | 1010.3 |
| 20260509024551 | 38 | 94 | 1.0 | 1.0 | 0.00 | 0.00 | 0.00 | 66 | 1010.3 |
| 20260509024043 | 38 | 94 | 1.0 | 1.0 | 0.00 | 0.00 | 0.00 | 66 | 1010.2 |
| 20260509023543 | 38 | 94 | 1.0 | 1.0 | 0.00 | 0.00 | 0.00 | 67 | 1010.1 |
| 20260509023053 | 38 | 94 | 0.0 | 1.0 | 0.00 | 0.00 | 0.00 | 65 | 1010.2 |
| 20260509022626 | 38 | 94 | 0.0 | 1.0 | 0.00 | 0.00 | 0.00 | 64 | 1010.2 |
| 20260509022045 | 38 | 94 | 1.0 | 1.0 | 0.00 | 0.00 | 0.00 | 64 | 1010.1 |
| 20260509021551 | 38 | 0 | 0.0 | 1.0 | 0.00 | 0.00 | 0.00 | 62 | 1010.2 |
| 20260509021047 | 38 | 94 | 0.0 | 1.0 | 0.00 | 0.00 | 0.00 | 65 | 1010.1 |
| 20260509020548 | 38 | 94 | 0.0 | 1.0 | 0.00 | 0.00 | 0.00 | 65 | 1010.0 |
| 20260509020050 | 39 | 94 | 0.0 | 1.0 | 0.00 | 0.00 | 0.00 | 64 | 1010.0 |
| 20260509015548 | 39 | 94 | 0.0 | 1.0 | 0.00 | 0.00 | 0.00 | 60 | 1009.9 |
| 20260509015048 | 39 | 94 | 0.0 | 1.0 | 0.00 | 0.00 | 0.00 | 60 | 1009.8 |
| 20260509014550 | 39 | 94 | 1.0 | 1.0 | 0.00 | 0.00 | 0.00 | 59 | 1009.8 |
| 20260509014046 | 39 | 94 | 0.0 | 1.0 | 0.00 | 0.00 | 0.00 | 61 | 1009.8 |
| 20260509013548 | 40 | 94 | 0.0 | 1.0 | 0.00 | 0.00 | 0.00 | 62 | 1009.8 |
| 20260509013104 | 39 | 94 | 0.0 | 1.0 | 0.00 | 0.00 | 0.00 | 62 | 1009.7 |
| 20260509012545 | 40 | 94 | 0.0 | 1.0 | 0.00 | 0.00 | 0.00 | 63 | 1009.7 |
| 20260509012051 | 40 | 94 | 0.0 | 1.0 | 0.00 | 0.00 | 0.00 | 62 | 1009.5 |
| 20260509011558 | 40 | 94 | 0.0 | 1.0 | 0.00 | 0.00 | 0.00 | 61 | 1009.4 |
| 20260509011046 | 40 | 94 | 0.0 | 1.0 | 0.00 | 0.00 | 0.00 | 60 | 1009.4 |
| 20260509010545 | 40 | 94 | 0.0 | 1.0 | 0.00 | 0.00 | 0.00 | 60 | 1009.3 |
| 20260509010048 | 40 | 94 | 1.0 | 1.0 | 0.00 | 0.00 | 0.00 | 58 | 1009.1 |
| 20260509005545 | 41 | 94 | 0.0 | 1.0 | 0.00 | 0.00 | 0.00 | 62 | 1009.1 |
| 20260509005047 | 41 | 94 | 0.0 | 1.0 | 0.00 | 0.00 | 0.00 | 60 | 1009.2 |
| 20260509004550 | 41 | 94 | 0.0 | 1.0 | 0.00 | 0.00 | 0.00 | 61 | 1009.1 |
| 20260509004048 | 41 | 94 | 0.0 | 1.0 | 0.00 | 0.00 | 0.00 | 58 | 1009.1 |
| 20260509003548 | 41 | 94 | 0.0 | 1.0 | 0.00 | 0.00 | 0.00 | 56 | 1008.9 |
| 20260509003112 | 41 | 94 | 0.0 | 1.0 | 0.00 | 0.00 | 0.00 | 58 | 1008.8 |
| 20260509002546 | 41 | 94 | 0.0 | 1.0 | 0.00 | 0.00 | 0.00 | 57 | 1008.8 |
| 20260509002046 | 42 | 94 | 0.0 | 1.0 | 0.00 | 0.00 | 0.00 | 58 | 1008.8 |
| 20260509001549 | 42 | 94 | 0.0 | 1.0 | 0.00 | 0.00 | 0.00 | 58 | 1008.7 |
| 20260509001046 | 42 | 94 | 0.0 | 1.0 | 0.00 | 0.00 | 0.00 | 57 | 1008.7 |
| 20260509000549 | 42 | 0 | 0.0 | 1.0 | 0.00 | 0.00 | 0.00 | 57 | 1008.8 |
| 20260509000106 | 42 | 0 | 0.0 | 1.0 | 0.00 | 0.00 | 0.00 | 60 | 1008.8 |
| 20260508235545 | 42 | 94 | 0.0 | 1.0 | 0.00 | 0.00 | 0.00 | 59 | 1008.6 |
| 20260508235046 | 42 | 0 | 0.0 | 1.0 | 0.00 | 0.00 | 0.00 | 58 | 1008.6 |
| 20260508234551 | 43 | 94 | 0.0 | 1.0 | 0.00 | 0.00 | 0.00 | 56 | 1008.5 |
| 20260508234049 | 43 | 0 | 0.0 | 2.0 | 0.00 | 0.00 | 0.00 | 57 | 1008.5 |
| 20260508233548 | 44 | 0 | 0.0 | 2.0 | 0.00 | 0.00 | 0.00 | 57 | 1008.4 |
| 20260508233054 | 44 | 0 | 0.0 | 2.0 | 0.00 | 0.00 | 0.00 | 54 | 1008.3 |
| 20260508232547 | 44 | 0 | 0.0 | 1.0 | 0.00 | 0.00 | 0.00 | 53 | 1008.4 |
| 20260508232045 | 45 | 0 | 0.0 | 3.0 | 0.00 | 0.00 | 0.00 | 51 | 1008.2 |
| 20260508231556 | 45 | 0 | 0.0 | 3.0 | 0.00 | 0.00 | 0.00 | 50 | 1008.2 |
| 20260508231042 | 45 | 342 | 1.0 | 3.0 | 0.00 | 0.00 | 0.00 | 46 | 1008.3 |
| 20260508230541 | 45 | 276 | 0.0 | 1.0 | 0.00 | 0.00 | 0.00 | 50 | 1008.2 |
| 20260508230054 | 46 | 254 | 0.0 | 1.0 | 0.00 | 0.00 | 0.00 | 50 | 1008.2 |
| 20260508225542 | 46 | 0 | 0.0 | 1.0 | 0.00 | 0.00 | 0.00 | 47 | 1008.1 |
| 20260508225042 | 46 | 0 | 0.0 | 1.0 | 0.00 | 0.00 | 0.00 | 50 | 1008.1 |
| 20260508224553 | 46 | 0 | 0.0 | 2.0 | 0.00 | 0.00 | 0.00 | 48 | 1008.1 |
| 20260508224044 | 46 | 0 | 1.0 | 2.0 | 0.00 | 0.00 | 0.00 | 47 | 1008.1 |
| 20260508223544 | 46 | 0 | 0.0 | 3.0 | 0.00 | 0.00 | 0.00 | 45 | 1008.0 |
| 20260508223052 | 46 | 256 | 0.0 | 3.0 | 0.00 | 0.00 | 0.00 | 47 | 1008.1 |
| 20260508222544 | 46 | 229 | 1.0 | 2.0 | 0.00 | 0.00 | 0.00 | 49 | 1008.1 |
| 20260508222048 | 46 | 257 | 1.0 | 3.0 | 0.00 | 0.00 | 0.00 | 45 | 1008.1 |
| 20260508221551 | 46 | 0 | 0.0 | 3.0 | 0.00 | 0.00 | 0.00 | 46 | 1008.0 |
| 20260508221044 | 46 | 229 | 0.0 | 2.0 | 0.00 | 0.00 | 0.00 | 45 | 1008.0 |
| 20260508220542 | 47 | 252 | 0.0 | 3.0 | 0.00 | 0.00 | 0.00 | 47 | 1007.9 |
| 20260508220057 | 46 | 215 | 1.0 | 3.0 | 0.00 | 0.00 | 0.00 | 49 | 1007.9 |
| 20260508215545 | 46 | 255 | 2.0 | 3.0 | 0.00 | 0.00 | 0.00 | 46 | 1007.9 |
| 20260508215048 | 47 | 257 | 1.0 | 4.0 | 0.00 | 0.00 | 0.00 | 45 | 1007.8 |
| 20260508214553 | 47 | 257 | 1.0 | 5.0 | 0.00 | 0.00 | 0.00 | 44 | 1007.8 |
| 20260508214045 | 47 | 248 | 2.0 | 5.0 | 0.00 | 0.00 | 0.00 | 46 | 1008.0 |
| 20260508213541 | 48 | 261 | 3.0 | 5.0 | 0.00 | 0.00 | 0.00 | 47 | 1007.8 |
| 20260508213059 | 48 | 250 | 1.0 | 5.0 | 0.00 | 0.00 | 0.00 | 43 | 1007.8 |
| 20260508212543 | 47 | 290 | 1.0 | 4.0 | 0.00 | 0.00 | 0.00 | 48 | 1007.9 |
| 20260508212042 | 47 | 250 | 2.0 | 7.0 | 0.00 | 0.00 | 0.00 | 46 | 1007.9 |
| 20260508211556 | 47 | 256 | 2.0 | 7.0 | 0.00 | 0.00 | 0.00 | 46 | 1007.7 |
| 20260508211048 | 47 | 278 | 2.0 | 5.0 | 0.00 | 0.00 | 0.00 | 51 | 1007.7 |
| 20260508210545 | 47 | 271 | 2.0 | 5.0 | 0.00 | 0.00 | 0.00 | 47 | 1007.7 |
| 20260508210050 | 47 | 274 | 2.0 | 5.0 | 0.00 | 0.00 | 0.00 | 49 | 1007.6 |
| 20260508205544 | 47 | 284 | 2.0 | 5.0 | 0.00 | 0.00 | 0.00 | 47 | 1007.6 |
| 20260508205041 | 47 | 262 | 2.0 | 6.0 | 0.00 | 0.00 | 0.00 | 47 | 1007.5 |
| 20260508204554 | 47 | 275 | 2.0 | 6.0 | 0.00 | 0.00 | 0.00 | 47 | 1007.5 |
| 20260508204041 | 47 | 274 | 1.0 | 3.0 | 0.00 | 0.00 | 0.00 | 47 | 1007.4 |
| 20260508203541 | 47 | 257 | 1.0 | 5.0 | 0.00 | 0.00 | 0.00 | 47 | 1007.5 |
| 20260508203055 | 47 | 267 | 1.0 | 5.0 | 0.00 | 0.00 | 0.00 | 47 | 1007.4 |
| 20260508202543 | 47 | 12 | 1.0 | 4.0 | 0.00 | 0.00 | 0.00 | 47 | 1007.3 |
| 20260508202042 | 47 | 294 | 2.0 | 5.0 | 0.00 | 0.00 | 0.00 | 48 | 1007.3 |
| 20260508201609 | 47 | 250 | 3.0 | 7.0 | 0.00 | 0.00 | 0.00 | 45 | 1007.3 |
| 20260508201042 | 48 | 270 | 3.0 | 7.0 | 0.00 | 0.00 | 0.00 | 45 | 1007.3 |
| 20260508200543 | 49 | 264 | 3.0 | 7.0 | 0.00 | 0.00 | 0.00 | 43 | 1007.3 |
| 20260508200105 | 48 | 260 | 1.0 | 5.0 | 0.00 | 0.00 | 0.00 | 46 | 1007.4 |
| 20260508195546 | 47 | 252 | 1.0 | 6.0 | 0.00 | 0.00 | 0.00 | 47 | 1007.4 |
| 20260508195045 | 48 | 276 | 3.0 | 7.0 | 0.00 | 0.00 | 0.00 | 43 | 1007.4 |
| 20260508194552 | 49 | 233 | 3.0 | 7.0 | 0.00 | 0.00 | 0.00 | 45 | 1007.5 |
| 20260508194044 | 49 | 266 | 3.0 | 7.0 | 0.00 | 0.00 | 0.00 | 46 | 1007.3 |
| 20260508193543 | 49 | 287 | 3.0 | 6.0 | 0.00 | 0.00 | 0.00 | 48 | 1007.3 |
| 20260508193100 | 49 | 267 | 2.0 | 8.0 | 0.00 | 0.00 | 0.00 | 47 | 1007.3 |
| 20260508192545 | 48 | 276 | 3.0 | 8.0 | 0.00 | 0.00 | 0.00 | 47 | 1007.3 |
| 20260508192041 | 47 | 297 | 2.0 | 7.0 | 0.00 | 0.00 | 0.00 | 50 | 1007.5 |
| 20260508191600 | 47 | 333 | 2.0 | 5.0 | 0.00 | 0.00 | 0.00 | 47 | 1007.3 |
| 20260508191043 | 47 | 240 | 2.0 | 4.0 | 0.00 | 0.00 | 0.00 | 52 | 1007.4 |
| 20260508190545 | 47 | 260 | 1.0 | 6.0 | 0.00 | 0.00 | 0.00 | 47 | 1007.4 |
| 20260508190057 | 47 | 307 | 2.0 | 6.0 | 0.00 | 0.00 | 0.00 | 49 | 1007.5 |
| 20260508185545 | 47 | 271 | 2.0 | 6.0 | 0.00 | 0.00 | 0.00 | 48 | 1007.6 |
| 20260508185042 | 46 | 339 | 2.0 | 7.0 | 0.00 | 0.00 | 0.00 | 49 | 1007.6 |
| 20260508184603 | 46 | 244 | 2.0 | 7.0 | 0.00 | 0.00 | 0.00 | 51 | 1007.7 |
| 20260508184045 | 45 | 266 | 2.0 | 4.0 | 0.00 | 0.00 | 0.00 | 52 | 1007.8 |
| 20260508183543 | 45 | 280 | 2.0 | 3.0 | 0.00 | 0.00 | 0.00 | 53 | 1007.8 |
| 20260508183103 | 44 | 290 | 2.0 | 10.0 | 0.00 | 0.00 | 0.00 | 52 | 1007.8 |
| 20260508182546 | 44 | 255 | 1.0 | 10.0 | 0.00 | 0.00 | 0.00 | 54 | 1007.7 |
| 20260508182046 | 44 | 311 | 1.0 | 4.0 | 0.00 | 0.00 | 0.00 | 55 | 1007.8 |
| 20260508181551 | 44 | 255 | 1.0 | 4.0 | 0.00 | 0.00 | 0.00 | 49 | 1007.8 |
| 20260508181045 | 44 | 274 | 2.0 | 4.0 | 0.00 | 0.00 | 0.00 | 53 | 1007.9 |
| 20260508180547 | 44 | 193 | 2.0 | 4.0 | 0.00 | 0.00 | 0.00 | 50 | 1007.8 |
| 20260508180053 | 44 | 193 | 2.0 | 3.0 | 0.00 | 0.00 | 0.00 | 50 | 1007.9 |
| 20260508175545 | 44 | 270 | 1.0 | 3.0 | 0.00 | 0.00 | 0.00 | 54 | 1007.8 |
| 20260508175045 | 44 | 246 | 2.0 | 3.0 | 0.00 | 0.00 | 0.00 | 51 | 1007.7 |
| 20260508174602 | 44 | 245 | 2.0 | 4.0 | 0.00 | 0.00 | 0.00 | 50 | 1007.8 |
| 20260508174046 | 44 | 252 | 2.0 | 7.0 | 0.00 | 0.00 | 0.00 | 49 | 1007.8 |
| 20260508173547 | 44 | 252 | 2.0 | 7.0 | 0.00 | 0.00 | 0.00 | 49 | 1007.8 |
| 20260508173050 | 44 | 340 | 2.0 | 5.0 | 0.00 | 0.00 | 0.00 | 50 | 1007.8 |
| 20260508172549 | 44 | 323 | 1.0 | 4.0 | 0.00 | 0.00 | 0.00 | 49 | 1007.8 |
| 20260508172044 | 44 | 178 | 1.0 | 3.0 | 0.00 | 0.00 | 0.00 | 55 | 1007.8 |
| 20260508171557 | 44 | 76 | 1.0 | 4.0 | 0.00 | 0.00 | 0.00 | 51 | 1007.7 |
| 20260508171051 | 44 | 309 | 1.0 | 4.0 | 0.00 | 0.00 | 0.00 | 50 | 1007.7 |
| 20260508170551 | 45 | 255 | 2.0 | 5.0 | 0.00 | 0.00 | 0.00 | 50 | 1007.8 |
| 20260508170055 | 45 | 278 | 1.0 | 5.0 | 0.00 | 0.00 | 0.00 | 48 | 1007.7 |
| 20260508165545 | 45 | 264 | 1.0 | 5.0 | 0.00 | 0.00 | 0.00 | 47 | 1007.6 |
| 20260508165048 | 45 | 232 | 1.0 | 5.0 | 0.00 | 0.00 | 0.00 | 51 | 1007.7 |
| 20260508164551 | 45 | 238 | 1.0 | 4.0 | 0.00 | 0.00 | 0.00 | 51 | 1007.6 |
| 20260508164044 | 45 | 288 | 1.0 | 5.0 | 0.00 | 0.00 | 0.00 | 48 | 1007.7 |
| 20260508163545 | 44 | 258 | 2.0 | 5.0 | 0.00 | 0.00 | 0.00 | 51 | 1007.7 |
| 20260508163112 | 44 | 270 | 2.0 | 4.0 | 0.00 | 0.00 | 0.00 | 50 | 1007.7 |
| 20260508162545 | 44 | 178 | 2.0 | 4.0 | 0.00 | 0.00 | 0.00 | 52 | 1007.8 |
| 20260508162048 | 43 | 178 | 2.0 | 4.0 | 0.00 | 0.00 | 0.00 | 56 | 1007.8 |
| 20260508161550 | 43 | 178 | 1.0 | 4.0 | 0.00 | 0.00 | 0.00 | 54 | 1007.8 |
| 20260508161048 | 43 | 63 | 1.0 | 5.0 | 0.00 | 0.00 | 0.00 | 52 | 1007.9 |
| 20260508160546 | 43 | 264 | 1.0 | 7.0 | 0.00 | 0.00 | 0.00 | 53 | 1007.9 |
| 20260508160051 | 43 | 271 | 2.0 | 7.0 | 0.00 | 0.00 | 0.00 | 52 | 1007.9 |
| 20260508155546 | 44 | 11 | 2.0 | 5.0 | 0.00 | 0.00 | 0.00 | 49 | 1007.8 |
| 20260508155049 | 44 | 193 | 1.0 | 5.0 | 0.00 | 0.00 | 0.00 | 53 | 1007.9 |
| 20260508154553 | 44 | 178 | 1.0 | 5.0 | 0.00 | 0.00 | 0.00 | 52 | 1007.8 |
| 20260508154045 | 44 | 178 | 1.0 | 5.0 | 0.00 | 0.00 | 0.00 | 51 | 1007.7 |
| 20260508153545 | 45 | 178 | 2.0 | 5.0 | 0.00 | 0.00 | 0.00 | 53 | 1007.9 |
| 20260508153055 | 44 | 243 | 1.0 | 4.0 | 0.00 | 0.00 | 0.00 | 60 | 1007.7 |
| 20260508152545 | 43 | 269 | 1.0 | 5.0 | 0.00 | 0.00 | 0.00 | 60 | 1007.8 |
| 20260508152045 | 43 | 178 | 2.0 | 5.0 | 0.00 | 0.00 | 0.00 | 62 | 1007.8 |
| 20260508151552 | 42 | 178 | 2.0 | 6.0 | 0.00 | 0.00 | 0.00 | 61 | 1007.8 |
| 20260508151049 | 42 | 270 | 2.0 | 7.0 | 0.00 | 0.00 | 0.00 | 64 | 1007.9 |
| 20260508150546 | 42 | 290 | 2.0 | 7.0 | 0.00 | 0.00 | 0.00 | 63 | 1007.8 |
| 20260508150052 | 41 | 307 | 1.0 | 6.0 | 0.00 | 0.00 | 0.00 | 63 | 1008.0 |
| 20260508145545 | 40 | 271 | 2.0 | 6.0 | 0.00 | 0.00 | 0.00 | 67 | 1007.9 |
| 20260508145046 | 40 | 309 | 2.0 | 6.0 | 0.00 | 0.00 | 0.00 | 67 | 1007.9 |
| 20260508144554 | 39 | 278 | 1.0 | 3.0 | 0.00 | 0.00 | 0.00 | 68 | 1008.0 |
| 20260508144048 | 39 | 276 | 2.0 | 4.0 | 0.00 | 0.00 | 0.00 | 66 | 1007.9 |
| 20260508143547 | 40 | 265 | 2.0 | 6.0 | 0.00 | 0.00 | 0.00 | 67 | 1007.9 |
| 20260508143051 | 40 | 285 | 1.0 | 6.0 | 0.00 | 0.00 | 0.00 | 66 | 1007.9 |
| 20260508142545 | 40 | 266 | 3.0 | 6.0 | 0.00 | 0.00 | 0.00 | 63 | 1007.8 |
| 20260508142050 | 41 | 264 | 3.0 | 6.0 | 0.00 | 0.00 | 0.00 | 63 | 1007.7 |
| 20260508141552 | 42 | 264 | 2.0 | 5.0 | 0.00 | 0.00 | 0.00 | 62 | 1007.7 |
| 20260508141045 | 42 | 254 | 2.0 | 6.0 | 0.00 | 0.00 | 0.00 | 59 | 1007.6 |
| 20260508140545 | 43 | 277 | 2.0 | 6.0 | 0.00 | 0.00 | 0.00 | 59 | 1007.4 |
| 20260508140054 | 43 | 178 | 2.0 | 6.0 | 0.00 | 0.00 | 0.00 | 59 | 1007.5 |
| 20260508135546 | 43 | 240 | 3.0 | 4.0 | 0.00 | 0.00 | 0.00 | 61 | 1007.4 |
| 20260508135045 | 43 | 248 | 2.0 | 6.0 | 0.00 | 0.00 | 0.00 | 59 | 1007.6 |
| 20260508134551 | 43 | 245 | 1.0 | 6.0 | 0.00 | 0.00 | 0.00 | 60 | 1007.6 |
| 20260508134045 | 42 | 293 | 1.0 | 4.0 | 0.00 | 0.00 | 0.00 | 62 | 1007.4 |
| 20260508133548 | 41 | 284 | 1.0 | 6.0 | 0.00 | 0.00 | 0.00 | 59 | 1007.5 |
| 20260508133051 | 41 | 178 | 2.0 | 7.0 | 0.00 | 0.00 | 0.00 | 63 | 1007.5 |
| 20260508132545 | 41 | 178 | 3.0 | 7.0 | 0.00 | 0.00 | 0.00 | 60 | 1007.4 |
| 20260508132045 | 42 | 178 | 2.0 | 5.0 | 0.00 | 0.00 | 0.00 | 61 | 1007.3 |
| 20260508131556 | 42 | 178 | 2.0 | 4.0 | 0.00 | 0.00 | 0.00 | 58 | 1007.3 |
| 20260508131045 | 43 | 178 | 1.0 | 4.0 | 0.00 | 0.00 | 0.00 | 57 | 1007.2 |
| 20260508130546 | 42 | 178 | 2.0 | 4.0 | 0.00 | 0.00 | 0.00 | 57 | 1007.2 |
| 20260508130103 | 42 | 178 | 1.0 | 5.0 | 0.00 | 0.00 | 0.00 | 61 | 1007.2 |
| 20260508125547 | 42 | 148 | 1.0 | 5.0 | 0.00 | 0.00 | 0.00 | 60 | 1007.3 |
| 20260508125050 | 41 | 178 | 1.0 | 5.0 | 0.00 | 0.00 | 0.00 | 62 | 1007.3 |
| 20260508124550 | 42 | 178 | 2.0 | 5.0 | 0.00 | 0.00 | 0.00 | 60 | 1007.3 |
| 20260508124048 | 41 | 178 | 2.0 | 5.0 | 0.00 | 0.00 | 0.00 | 61 | 1007.3 |
| 20260508123546 | 41 | 178 | 1.0 | 5.0 | 0.00 | 0.00 | 0.00 | 62 | 1007.3 |
| 20260508123054 | 41 | 178 | 1.0 | 5.0 | 0.00 | 0.00 | 0.00 | 65 | 1007.2 |
| 20260508122548 | 41 | 139 | 1.0 | 5.0 | 0.00 | 0.00 | 0.00 | 66 | 1007.2 |
| 20260508122047 | 40 | 174 | 1.0 | 5.0 | 0.00 | 0.00 | 0.00 | 68 | 1007.1 |
| 20260508121556 | 39 | 178 | 0.0 | 5.0 | 0.00 | 0.00 | 0.00 | 70 | 1007.2 |
| 20260508121045 | 39 | 178 | 2.0 | 5.0 | 0.00 | 0.00 | 0.00 | 72 | 1007.2 |
| 20260508120546 | 37 | 178 | 0.0 | 1.0 | 0.00 | 0.00 | 0.00 | 76 | 1007.2 |
| 20260508120055 | 37 | 178 | 0.0 | 1.0 | 0.00 | 0.00 | 0.00 | 73 | 1007.2 |
| 20260508115545 | 37 | 0 | 0.0 | 1.0 | 0.00 | 0.00 | 0.00 | 75 | 1007.2 |
| 20260508115046 | 36 | 114 | 0.0 | 1.0 | 0.00 | 0.00 | 0.00 | 75 | 1007.2 |
| 20260508114555 | 36 | 0 | 0.0 | 1.0 | 0.00 | 0.00 | 0.00 | 74 | 1007.2 |
| 20260508114047 | 36 | 0 | 0.0 | 1.0 | 0.00 | 0.00 | 0.00 | 72 | 1007.2 |
| 20260508113546 | 36 | 0 | 0.0 | 2.0 | 0.00 | 0.00 | 0.00 | 76 | 1007.2 |
| 20260508113055 | 36 | 144 | 0.0 | 2.0 | 0.00 | 0.00 | 0.00 | 75 | 1007.1 |
| 20260508112549 | 35 | 85 | 0.0 | 1.0 | 0.00 | 0.00 | 0.00 | 76 | 1007.1 |
| 20260508112044 | 35 | 94 | 0.0 | 1.0 | 0.00 | 0.00 | 0.00 | 73 | 1007.1 |
| 20260508111552 | 35 | 94 | 0.0 | 2.0 | 0.00 | 0.00 | 0.00 | 75 | 1007.0 |
| 20260508111044 | 35 | 95 | 0.0 | 2.0 | 0.00 | 0.00 | 0.00 | 75 | 1007.0 |
| 20260508110543 | 35 | 95 | 0.0 | 2.0 | 0.00 | 0.00 | 0.00 | 78 | 1007.0 |
| 20260508110106 | 34 | 96 | 0.0 | 1.0 | 0.00 | 0.00 | 0.00 | 75 | 1007.0 |
| 20260508105543 | 34 | 96 | 0.0 | 1.0 | 0.00 | 0.00 | 0.00 | 75 | 1006.9 |
| 20260508105049 | 35 | 96 | 1.0 | 1.0 | 0.00 | 0.00 | 0.00 | 76 | 1007.0 |
| 20260508104603 | 35 | 0 | 0.0 | 1.0 | 0.00 | 0.00 | 0.00 | 76 | 1007.0 |
| 20260508104047 | 35 | 0 | 0.0 | 1.0 | 0.00 | 0.00 | 0.00 | 76 | 1006.8 |
| 20260508103545 | 35 | 0 | 0.0 | 1.0 | 0.00 | 0.00 | 0.00 | 75 | 1006.7 |
| 20260508103051 | 35 | 0 | 0.0 | 1.0 | 0.00 | 0.00 | 0.00 | 78 | 1006.6 |
| 20260508102546 | 34 | 0 | 0.0 | 1.0 | 0.00 | 0.00 | 0.00 | 76 | 1006.7 |
| 20260508102046 | 34 | 0 | 0.0 | 1.0 | 0.00 | 0.00 | 0.00 | 76 | 1006.7 |
| 20260508101556 | 34 | 96 | 0.0 | 1.0 | 0.00 | 0.00 | 0.00 | 74 | 1006.7 |
| 20260508101047 | 34 | 98 | 0.0 | 1.0 | 0.00 | 0.00 | 0.00 | 75 | 1006.7 |
| 20260508100546 | 34 | 97 | 0.0 | 1.0 | 0.00 | 0.00 | 0.00 | 74 | 1006.7 |
| 20260508100049 | 34 | 97 | 0.0 | 1.0 | 0.00 | 0.00 | 0.00 | 74 | 1006.6 |
| 20260508095550 | 34 | 97 | 0.0 | 1.0 | 0.00 | 0.00 | 0.00 | 74 | 1006.6 |
| 20260508095045 | 34 | 98 | 1.0 | 1.0 | 0.00 | 0.00 | 0.00 | 74 | 1006.5 |
| 20260508094555 | 34 | 97 | 0.0 | 1.0 | 0.00 | 0.00 | 0.00 | 75 | 1006.5 |
| 20260508094043 | 34 | 97 | 0.0 | 2.0 | 0.00 | 0.00 | 0.00 | 74 | 1006.3 |
| 20260508093547 | 34 | 98 | 0.0 | 2.0 | 0.00 | 0.00 | 0.00 | 74 | 1006.3 |
| 20260508093057 | 34 | 97 | 1.0 | 2.0 | 0.00 | 0.00 | 0.00 | 75 | 1006.3 |
| 20260508092546 | 34 | 97 | 0.0 | 1.0 | 0.00 | 0.00 | 0.00 | 74 | 1006.3 |
| 20260508092045 | 34 | 98 | 0.0 | 1.0 | 0.00 | 0.00 | 0.00 | 75 | 1006.4 |
| 20260508091552 | 34 | 97 | 0.0 | 1.0 | 0.00 | 0.00 | 0.00 | 76 | 1006.3 |
| 20260508091045 | 34 | 97 | 0.0 | 1.0 | 0.00 | 0.00 | 0.00 | 75 | 1006.4 |
| 20260508090546 | 34 | 97 | 0.0 | 1.0 | 0.00 | 0.00 | 0.00 | 75 | 1006.2 |
| 20260508090111 | 34 | 98 | 0.0 | 1.0 | 0.00 | 0.00 | 0.00 | 75 | 1006.2 |
| 20260508085546 | 34 | 0 | 0.0 | 0.0 | 0.00 | 0.00 | 0.00 | 75 | 1006.2 |
| 20260508085046 | 34 | 0 | 0.0 | 1.0 | 0.00 | 0.00 | 0.00 | 76 | 1006.3 |
| 20260508084555 | 34 | 0 | 0.0 | 1.0 | 0.00 | 0.00 | 0.00 | 74 | 1006.2 |
| 20260508084050 | 34 | 0 | 0.0 | 1.0 | 0.00 | 0.00 | 0.00 | 74 | 1006.1 |
| 20260508083550 | 34 | 98 | 0.0 | 1.0 | 0.00 | 0.00 | 0.00 | 77 | 1006.2 |
| 20260508083056 | 35 | 97 | 0.0 | 1.0 | 0.00 | 0.00 | 0.00 | 75 | 1006.1 |
| 20260508082547 | 35 | 97 | 0.0 | 2.0 | 0.00 | 0.00 | 0.00 | 73 | 1006.2 |
| 20260508082043 | 35 | 98 | 0.0 | 2.0 | 0.00 | 0.00 | 0.00 | 72 | 1006.2 |
| 20260508081616 | 35 | 84 | 1.0 | 2.0 | 0.00 | 0.00 | 0.00 | 71 | 1006.3 |
| 20260508081046 | 35 | 85 | 0.0 | 2.0 | 0.00 | 0.00 | 0.00 | 73 | 1006.3 |
| 20260508080543 | 35 | 86 | 0.0 | 3.0 | 0.00 | 0.00 | 0.00 | 72 | 1006.1 |
| 20260508080055 | 34 | 77 | 0.0 | 3.0 | 0.00 | 0.00 | 0.00 | 73 | 1006.2 |
| 20260508075545 | 34 | 62 | 0.0 | 3.0 | 0.00 | 0.00 | 0.00 | 72 | 1006.2 |
| 20260508075048 | 35 | 0 | 0.0 | 1.0 | 0.00 | 0.00 | 0.00 | 72 | 1006.0 |
| 20260508074558 | 35 | 69 | 0.0 | 1.0 | 0.00 | 0.00 | 0.00 | 74 | 1006.1 |
| 20260508074045 | 35 | 68 | 0.0 | 1.0 | 0.00 | 0.00 | 0.00 | 73 | 1005.9 |
| 20260508073543 | 35 | 68 | 1.0 | 1.0 | 0.00 | 0.00 | 0.00 | 71 | 1005.9 |
| 20260508073059 | 35 | 68 | 0.0 | 2.0 | 0.00 | 0.00 | 0.00 | 71 | 1006.0 |
| 20260508072543 | 35 | 68 | 0.0 | 2.0 | 0.00 | 0.00 | 0.00 | 71 | 1005.9 |
| 20260508072047 | 35 | 60 | 0.0 | 2.0 | 0.00 | 0.00 | 0.00 | 72 | 1005.9 |
| 20260508071555 | 35 | 0 | 0.0 | 2.0 | 0.00 | 0.00 | 0.00 | 72 | 1006.0 |
| 20260508071043 | 35 | 60 | 0.0 | 1.0 | 0.00 | 0.00 | 0.00 | 71 | 1005.9 |
| 20260508070547 | 35 | 60 | 0.0 | 1.0 | 0.00 | 0.00 | 0.00 | 71 | 1006.0 |
| 20260508070107 | 35 | 60 | 0.0 | 1.0 | 0.00 | 0.00 | 0.00 | 72 | 1006.1 |
| 20260508065546 | 35 | 60 | 1.0 | 1.0 | 0.00 | 0.00 | 0.00 | 71 | 1006.1 |
| 20260508065045 | 35 | 59 | 0.0 | 1.0 | 0.00 | 0.00 | 0.00 | 73 | 1006.1 |